Flag for Hungary Weather past 2 weeks in Miskolc, Hungary

Now
51 °F

Passing clouds.


Feels Like: 51 °F
Forecast: 54 / 74 °F
Wind: No wind

Location: Miskolc

Current Time: Aug 30, 2014 at 7:25:24 AM

Latest Report: Aug 30, 2014 at 6:00 AM


Visibility: 13 mi

Pressure: 30.11 "Hg

Humidity: 90%

Dew point: 48 °F

Location of MiskolcLocation

Historic Weather in Miskolc — Graph

°F

Miskolc temperature yesterday

Maximum temperature yesterday: 75 °F (at 4:00 PM)
Minimum temperature yesterday: 47 °F (at 6:00 AM)
Average temperature yesterday: 61 °F

Past Weeks' High & Low Weather Summary

 TemperatureHumidityPressure
High79 °F (Aug 19, 5:00 PM)94% (Aug 24, 2:00 AM)30.16 "Hg (Aug 24, 2:00 AM)
Low46 °F (Aug 28, 6:00 AM)33% (Aug 25, 5:00 PM)29.72 "Hg (Aug 27, 1:00 PM)
Average62 °F72%29.96 "Hg
* Reported Aug 15 6:00 AM — Aug 30 6:00 AM, Miskolc, Weather by CustomWeather, © 2014

Note: Actual official high and low records may vary slightly from our data, if they occured in-between our weather recording intervals... More about our weather records

Advertising

Miskolc weather history for previous 24 hours

 ConditionsComfort  
Time TempWeatherWind HumidityBarometerVisibility
6:00 AM
Aug 30
51 °FPassing clouds.No wind90%30.11 "Hg12 mi
5:00 AM51 °FClear.No wind89%30.11 "Hg16 mi
4:00 AM51 °FClear.No wind87%30.11 "Hg19 mi
3:00 AM53 °FClear.No wind85%30.11 "Hg19 mi
2:00 AM54 °FPassing clouds.No wind84%30.11 "Hg19 mi
1:00 AM54 °FPassing clouds.1 mph81%30.11 "Hg19 mi
12:00 AM55 °FPassing clouds.1 mph80%30.11 "Hg19 mi
11:00 PM
Aug 29
57 °FPassing clouds.No wind76%30.10 "Hg19 mi
9:00 PM61 °FPassing clouds.1 mph67%30.10 "Hg22 mi
8:00 PM63 °FPassing clouds.1 mph60%30.08 "Hg22 mi
7:00 PM67 °FPassing clouds.No wind55%30.07 "Hg25 mi
6:00 PM73 °FPassing clouds.1 mph37%30.07 "Hg25 mi
5:00 PM75 °FPassing clouds.1 mph35%30.07 "Hg25 mi
4:00 PM75 °FScattered clouds.1 mph35%30.08 "Hg25 mi
3:00 PM73 °FScattered clouds.1 mph39%30.09 "Hg25 mi
2:00 PM72 °FPartly sunny.1 mph43%30.11 "Hg25 mi
1:00 PM70 °FPartly sunny.1 mph52%30.13 "Hg25 mi
12:00 PM69 °FPassing clouds.1 mph55%30.14 "Hg25 mi
11:00 AM67 °FPassing clouds.1 mph60%30.15 "Hg25 mi
10:00 AM64 °FPassing clouds.1 mph63%30.15 "Hg25 mi
9:00 AM60 °FPassing clouds.No wind65%30.16 "Hg22 mi
8:00 AM54 °FSunny.No wind77%30.16 "Hg16 mi
7:00 AM47 °FPassing clouds.No wind90%30.16 "Hg16 mi
Weather by CustomWeather, © 2014

See weather overviewHow to use our weather pages